SCP
0 1 1 1 0 0 0 0 1 1 1 1 1 1 1 2 3 4 6 7 6 4 2 2 2 2 2 2 2 2 2 2 2 1 1 1 1 1 1 1 1 2 2 2
0 0 1 1 0 0 0 0 1 1 1 1 1 1 1 1 2 3 5 6 5 4 2 2 2 3 3 3 2 2 2 2 2 2 1 1 1 1 1 1 2 2 2 2
0 0 0 0 0 0 0 0 1 1 1 1 1 1 1 1 2 3 4 4 4 2 2 2 2 3 4 4 3 2 3 3 3 2 2 2 2 2 2 2 2 2 2 2
0 0 0 0 0 0 0 0 1 1 1 0 1 1 1 1 2 3 4 4 3 2 1 2 2 3 4 4 4 3 3 3 3 3 2 2 2 2 2 2 3 3 3 3
0 0 0 0 0 0 0 0 0 0 0 0 0 1 1 2 3 4 5 4 2 1 1 2 2 3 4 4 4 4 3 3 3 3 3 2 3 3 3 3 3 2 2 2
0 0 0 0 0 0 0 0 0 0 0 0 0 1 1 2 3 5 5 4 2 1 1 1 1 2 3 4 5 5 5 4 4 4 4 3 3 3 3 3 3 3 2 2
0 0 0 0 0 0 0 0 0 0 0 0 1 1 1 2 3 5 5 3 2 1 1 1 1 1 2 3 5 5 6 6 6 6 5 4 4 4 4 4 4 3 3 2
0 0 0 0 0 0 0 0 0 0 0 0 1 1 1 2 3 4 4 2 1 1 1 1 1 1 1 2 4 5 6 7 7 8 7 6 5 4 4 4 4 3 3 3
0 0 0 0 0 0 0 0 0 0 0 0 1 1 2 2 3 3 2 2 1 1 1 1 1 1 1 2 3 5 6 7 7 8 8 7 6 5 4 4 3 3 3 3
0 0 0 0 0 0 0 0 0 0 0 0 1 1 1 2 2 2 1 1 1 1 1 1 1 1 2 2 3 5 6 7 8 8 8 7 6 5 4 4 3 3 3 3
0 0 0 0 0 0 0 0 0 0 0 0 0 1 1 2 3 2 1 1 1 1 1 1 1 2 2 2 3 4 6 7 8 8 8 6 5 5 4 4 4 4 4 4
0 0 0 0 0 0 0 0 0 0 0 0 0 1 2 3 3 2 2 2 2 2 2 2 2 2 2 3 3 4 6 7 7 7 6 5 4 4 4 5 5 5 5 5
0 0 0 0 0 0 0 0 0 0 0 0 0 1 3 3 3 3 3 3 2 3 3 3 2 2 2 3 3 4 5 6 6 5 5 5 4 4 5 5 5 5 5 6
0 0 0 0 0 0 0 0 0 0 0 0 1 2 3 3 3 5 6 5 3 3 2 2 2 2 2 2 3 3 4 4 5 5 5 5 5 5 5 6 7 7 6 6
0 0 0 0 0 0 0 0 0 0 0 0 1 2 2 2 3 5 6 5 3 2 2 1 1 1 2 2 2 2 2 3 4 5 6 6 5 6 7 8 9 8 6 6
0 0 0 0 0 0 0 0 0 0 0 1 1 2 2 3 3 4 4 4 3 2 2 2 2 2 2 2 2 2 3 3 4 5 6 6 5 6 9 11 10 8 6 5
0 0 0 0 0 0 0 0 0 1 1 1 1 2 3 4 4 3 3 3 3 3 2 3 3 3 3 3 2 3 4 4 4 5 7 7 6 8 11 12 11 8 6 5
0 0 0 0 0 0 0 1 1 1 1 1 1 2 3 4 3 3 3 3 3 3 3 3 3 3 3 2 2 3 5 5 5 6 8 8 8 10 12 12 9 7 5 5
0 0 0 0 0 0 1 1 2 2 2 2 2 3 3 3 3 3 3 3 3 3 3 3 3 3 3 2 2 3 5 6 6 7 9 9 9 11 11 10 7 5 4 4
0 0 0 0 0 1 1 1 2 3 3 3 3 3 2 3 3 3 2 2 2 2 3 3 3 3 2 2 3 4 5 6 7 8 8 8 9 9 8 7 5 4 3 3
0 0 0 0 0 1 1 1 1 2 2 2 2 2 1 2 2 2 2 2 2 2 3 3 3 2 2 2 3 5 7 7 7 8 8 8 7 7 6 5 4 4 4 3
0 0 0 0 1 1 2 1 1 1 1 1 1 1 1 1 1 1 1 2 2 2 2 2 2 2 2 2 4 6 7 8 9 9 9 9 8 6 5 5 4 4 4 4
2 1 1 1 1 1 1 1 1 1 1 1 1 1 1 1 1 1 2 2 1 1 1 1 2 2 3 3 4 6 7 8 10 11 11 11 9 7 5 4 4 5 5 4
4 3 3 2 2 2 2 1 1 1 1 1 1 1 1 1 1 1 2 2 1 1 1 1 2 3 3 4 4 5 6 7 10 12 13 13 11 8 6 5 5 5 5 5
4 4 3 3 2 2 1 1 1 1 1 1 1 1 1 1 1 1 2 2 1 1 1 2 3 4 4 4 5 6 6 7 9 12 14 14 12 9 7 5 5 5 5 5
4 3 2 2 2 1 1 1 1 1 1 1 1 1 1 1 1 1 2 2 2 1 1 2 3 4 4 5 5 6 6 6 9 12 14 15 13 10 7 6 4 4 4 4
Wind_Speed
1 2 4 8 9 7 5 3 2 2 3 5 4 4 5 6 7 8 8 9 9 9 8 8 8 8 7 5 5 4 3 2 2 1 1 1 1 1 1 1 2 2 3 3
2 5 9 7 5 4 4 3 2 2 2 5 3 2 2 5 8 8 9 9 9 8 7 7 7 7 6 6 5 4 4 3 3 2 2 2 2 1 1 1 1 2 2 3
5 8 5 4 3 2 2 3 4 4 3 5 5 4 2 2 3 4 7 7 7 10 10 9 9 8 7 6 6 5 4 4 3 2 2 1 1 1 1 0 1 1 2 3
5 6 3 3 3 4 1 3 7 6 5 1 3 0 5 4 2 4 5 6 7 7 8 8 9 9 9 8 6 5 5 4 3 3 2 3 2 2 2 2 1 1 2 3
5 3 3 3 4 5 4 4 6 5 4 3 2 2 6 1 3 5 6 8 8 8 9 10 10 10 9 8 7 5 5 4 3 3 3 3 2 2 1 1 1 1 1 2
6 4 4 4 3 5 7 6 6 6 5 2 3 3 5 4 8 6 6 7 9 8 8 8 8 8 7 7 6 6 5 4 3 3 3 3 3 3 2 2 1 1 1 1
5 5 3 3 3 2 6 7 4 5 4 3 2 2 7 7 7 9 9 8 8 8 7 7 7 8 7 7 7 7 6 5 4 4 3 4 4 4 4 3 3 2 1 1
1 5 4 2 5 5 4 9 7 4 3 3 2 2 6 4 4 5 6 6 7 7 7 7 9 9 9 9 8 7 7 6 5 4 4 3 4 3 2 3 3 3 2 2
3 5 4 2 3 7 3 2 7 7 2 1 2 3 5 2 3 4 5 5 6 6 6 6 7 7 7 7 7 7 7 5 5 5 4 3 3 3 3 2 2 2 2 2
5 2 4 2 4 4 5 6 6 6 4 1 2 2 4 2 3 3 4 6 6 6 5 5 5 6 6 6 6 6 6 6 5 4 4 3 4 4 3 2 2 2 2 2
4 3 4 3 2 2 3 3 5 5 6 6 2 6 5 7 7 6 5 5 5 6 6 6 5 5 5 5 4 5 5 4 4 4 4 3 3 3 3 3 3 3 2 3
3 6 1 4 4 3 4 4 6 5 2 4 4 6 2 6 5 5 4 4 5 5 5 5 5 4 4 4 4 4 4 4 4 4 3 3 3 3 3 3 3 3 3 2
4 7 3 7 8 6 3 1 3 6 5 3 4 4 2 3 4 5 5 5 5 6 5 4 4 4 4 3 3 3 3 4 4 3 3 2 2 3 3 3 3 3 3 3
7 6 6 6 6 2 1 2 1 5 4 3 4 4 0 2 3 3 4 4 5 5 5 4 4 3 3 4 3 3 3 3 4 3 3 3 3 3 4 3 3 3 3 3
7 4 2 3 3 0 1 0 1 3 6 6 5 5 5 4 5 5 5 6 6 5 4 3 2 2 2 2 3 3 3 3 3 3 3 3 3 2 2 2 3 3 3 3
5 4 2 3 2 3 2 1 2 2 3 5 5 1 3 2 3 4 5 6 6 5 4 3 2 2 2 2 2 2 3 3 3 3 3 3 2 2 2 2 2 2 2 2
3 4 4 2 4 5 4 3 2 2 2 7 6 5 4 4 4 4 4 5 6 5 4 3 2 2 2 2 2 3 3 3 3 3 3 3 3 2 2 2 2 3 2 2
6 4 4 1 4 1 7 3 4 5 2 2 5 5 7 6 4 3 4 5 4 3 3 2 2 2 1 1 0 1 1 2 3 3 3 2 2 3 2 2 3 3 2 3
6 7 4 3 2 3 4 3 1 4 3 2 6 5 4 5 6 4 2 4 4 3 2 1 1 2 1 1 1 1 0 1 2 3 4 3 3 3 3 3 4 3 2 2
5 6 6 4 3 3 5 5 1 7 2 3 5 6 5 5 3 2 0 3 4 3 2 2 1 1 1 1 1 2 0 1 3 4 4 5 5 5 4 4 3 3 3 3
4 4 4 3 3 4 5 5 4 5 4 2 3 4 4 3 5 4 2 2 3 2 2 2 3 2 0 1 1 1 0 2 3 2 3 3 4 5 5 4 3 3 3 3
4 3 2 3 2 5 5 3 4 5 3 1 3 3 3 4 3 3 3 2 3 2 2 2 2 1 1 1 1 1 1 2 2 1 2 3 3 3 3 3 3 3 3 3
2 5 5 5 6 5 1 3 4 5 4 3 3 3 5 4 3 2 2 2 2 2 1 1 1 1 2 1 1 0 2 1 1 1 2 2 2 2 2 3 3 2 3 3
2 2 4 2 1 0 2 4 3 4 5 4 4 4 4 3 2 2 2 1 1 1 1 1 1 1 2 2 2 1 2 1 1 2 2 2 2 2 2 2 3 3 3 3
2 1 3 1 1 2 3 2 4 5 5 5 5 4 4 3 2 1 1 1 1 1 0 1 1 0 1 2 2 1 1 0 1 2 2 2 2 2 2 2 3 4 4 4
1 3 4 4 5 3 2 1 3 5 4 4 4 3 2 2 0 1 1 1 1 1 0 1 0 1 2 2 2 2 1 1 0 1 2 2 2 2 2 2 3 4 4 4
Wind_Direction
259 97 215 219 207 198 190 185 190 177 141 106 118 138 167 169 168 170 173 173 174 179 176 164 163 160 155 150 148 150 147 155 140 128 135 137 158 181 190 203 182 164 158 160
2 256 235 216 224 193 178 149 127 95 97 98 105 97 186 178 189 183 175 175 175 172 165 166 164 161 163 164 161 158 159 161 157 161 163 169 166 179 187 215 185 167 159 167
215 245 232 200 197 146 152 161 158 151 84 61 78 8 304 244 186 179 173 169 170 174 172 172 170 170 169 171 173 169 172 170 165 153 124 104 74 50 55 196 237 207 172 168
244 250 228 211 199 152 196 192 144 135 110 118 116 140 277 236 212 196 180 170 177 181 173 175 174 176 178 180 176 170 173 173 169 154 145 153 159 177 212 205 209 211 179 171
254 226 209 217 205 150 170 142 120 129 120 80 52 115 277 230 208 212 188 176 182 188 182 185 184 184 183 178 175 173 172 177 174 166 168 166 179 198 204 177 171 183 180 174
255 256 206 193 185 136 128 74 51 55 69 58 240 158 265 225 210 203 194 180 183 184 184 187 185 178 178 174 172 171 172 182 181 178 177 177 184 186 167 179 185 197 187 186
314 305 277 161 112 72 98 88 39 13 22 260 247 167 247 234 201 190 188 185 176 174 182 187 183 180 178 176 178 177 176 185 187 183 189 192 193 186 187 193 195 190 185 203
209 293 272 203 162 171 168 137 150 175 205 272 328 230 260 237 186 160 160 167 163 167 182 187 188 184 181 180 179 179 183 191 191 190 199 200 195 194 203 202 198 196 200 205
176 252 282 241 162 139 131 145 153 129 123 76 295 303 319 59 97 118 128 137 149 157 169 182 182 178 177 178 179 183 184 189 193 196 196 197 197 196 203 203 197 205 206 197
165 243 289 296 53 30 137 142 92 108 135 165 303 261 233 205 164 153 148 161 159 150 143 142 152 161 168 175 175 171 177 184 186 186 194 197 205 206 198 187 191 198 205 191
128 138 311 12 113 163 65 76 100 112 140 144 198 264 225 186 172 164 165 166 156 152 156 153 153 152 149 154 161 167 171 176 183 190 195 196 199 197 188 188 195 194 195 183
133 118 242 272 268 181 133 142 134 134 185 144 154 269 305 156 153 146 142 141 143 146 151 149 145 135 129 143 157 168 172 177 192 195 192 195 198 191 189 197 200 186 181 190
115 101 63 346 345 0 43 85 123 124 113 131 149 257 351 103 114 120 118 122 130 134 133 131 129 136 146 157 162 162 171 185 189 183 184 189 190 195 203 206 199 189 182 186
105 101 145 184 219 244 338 338 103 114 129 168 191 192 59 95 114 115 111 118 119 122 130 136 139 152 166 174 175 172 180 190 188 185 189 194 201 206 204 197 190 190 188 186
92 102 140 201 227 205 91 158 121 144 172 170 193 173 188 181 164 149 132 120 114 116 119 125 141 156 166 169 179 179 188 191 185 178 187 209 210 200 185 186 194 198 200 201
78 109 64 356 1 14 11 6 105 150 168 150 128 179 213 153 112 110 119 127 129 133 136 146 155 158 178 187 192 190 196 191 171 175 194 202 197 192 188 187 187 194 204 206
92 105 88 299 321 34 342 287 159 131 163 149 164 196 159 126 126 145 144 136 141 149 152 156 160 170 187 202 203 201 204 191 176 184 192 191 191 190 193 193 184 197 203 203
131 108 118 106 45 200 246 273 121 118 80 142 146 153 155 153 151 143 141 137 137 145 153 168 168 160 178 193 229 234 188 185 186 188 194 199 206 204 192 184 199 209 206 205
139 133 121 119 154 268 299 337 31 115 43 41 125 125 117 105 78 40 63 108 122 120 119 139 165 151 159 204 202 129 72 204 195 199 198 200 203 208 207 210 214 217 213 222
73 100 115 123 142 219 260 302 336 98 62 339 115 127 131 104 94 242 215 109 107 99 93 86 81 81 106 245 139 116 243 224 223 220 207 200 194 200 213 219 216 221 212 220
47 54 107 138 173 247 271 308 50 102 217 268 125 143 138 143 180 197 159 110 119 118 108 98 79 70 305 242 107 108 258 256 253 241 211 206 205 207 210 207 211 219 223 228
149 134 154 133 155 248 297 36 105 184 199 127 101 113 113 124 124 125 119 110 125 121 95 90 73 32 357 40 91 60 292 272 289 271 212 212 219 230 225 202 211 216 215 225
141 176 172 174 202 234 255 138 164 150 126 119 110 113 109 103 114 121 106 96 122 121 116 103 99 33 355 20 74 116 266 278 297 288 256 233 223 222 214 201 209 219 223 228
321 68 91 68 310 335 76 100 101 107 112 114 115 114 105 101 83 97 90 68 74 83 101 83 79 25 340 337 354 302 263 272 293 280 274 256 239 239 241 227 215 212 220 235
251 63 84 94 267 20 18 68 100 91 90 89 88 91 93 94 67 148 149 149 142 121 72 105 116 265 299 313 320 317 294 268 320 287 286 293 271 245 247 249 240 234 228 224
260 167 153 211 223 169 229 307 90 93 90 96 92 66 54 87 49 249 197 190 164 165 159 69 25 291 290 300 297 289 264 192 197 307 302 282 268 265 251 262 288 284 267 265